Content
SEND FEEDBACK

Daily
Averages
Monthly
Summary
United Kingdom

LONDON, ENGLAND


Home > Europe > United Kingdom > England
Elevation: 203 feet     Latitude: 51 09N     Longitude: 000 11W

WEATHER
 
SELECT A DAY
Number of Records: 294,675;   Date Range: 7/1/96 - 9/21/14
 
SHARE

PRINT THIS DATA

[ ← Previous Day ]
WEATHER ALMANAC - DECEMBER 23, 2013
[ Next Day → ]
[ °C ]   °F
Weather ElementAverageHighLow
Temperature48.9 °F51.8 °F (1:50 pm)41 °F (12:50 am)
Dewpoint45.5 °F50 °F (6:20 pm)35.6 °F (12:50 am)
Humidity88.1 %94 % (1:20 pm)81 % (12:50 am)
Barometer29.48 in29.95 in (12:50 am)28.94 in (11:50 pm)
Wind Speed18.5 mph28.8 mph (4:50 pm)
Wind Gust50.6 mph (11:50 pm)
Weather ElementAverage
Visibility4.2 mi
Wind DirectionSSW (197.7 °)

Weather ElementTotal
Precipitation---
Heating Degree Days18.6 (Base 65)
Averaged from 47 records on December 23, 2013
WEATHER CONDITIONS BREAKOUT
WIND DIRECTION BREAKOUT
WEATHER BY HOUR - DECEMBER 23, 2013
[ °C ]   °F
Local TimeTemperatureDewpointHumidityBarometerVisibilityWind DirectionWind SpeedGust SpeedPrecipitationEventsConditions
12:50 AM41.0 °F35.6 °F81 %29.95 in6.2 miSouth (190°)4.6 mphPartly Cloudy
1:20 AM41.0 °F37.4 °F87 %29.92 inSSW (200°)5.8 mphClear
1:50 AM42.8 °F37.4 °F81 %29.92 inSSW (210°)6.9 mphClear
2:20 AM41.0 °F37.4 °F87 %29.92 inSSW (200°)5.8 mphClear
2:50 AM42.8 °F37.4 °F81 %29.92 in6.2 miSSW (200°)4.6 mphScattered Clouds
3:20 AM42.8 °F37.4 °F81 %29.89 in6.2 miSSW (200°)8.1 mphPartly Cloudy
3:50 AM44.6 °F39.2 °F81 %29.89 inSSW (200°)6.9 mphClear
4:20 AM42.8 °F39.2 °F87 %29.86 inSSW (200°)5.8 mphClear
4:50 AM44.6 °F39.2 °F81 %29.86 in6.2 miSSW (200°)9.2 mphScattered Clouds
5:20 AM46.4 °F41.0 °F81 %29.83 in6.2 miSSW (210°)11.5 mphRainLight Rain Showers
5:50 AM46.4 °F42.8 °F87 %29.83 in6.2 miSSW (210°)8.1 mphMostly Cloudy
6:20 AM46.4 °F42.8 °F87 %29.80 in6.2 miSSW (200°)10.4 mph21.9 mphPartly Cloudy
6:50 AM46.4 °F42.8 °F87 %29.77 in6.2 miSSW (200°)11.5 mphMostly Cloudy
7:20 AM48.2 °F44.6 °F87 %29.77 in6.2 miSouth (190°)12.7 mphMostly Cloudy
7:50 AM48.2 °F44.6 °F87 %29.74 in6.2 miSouth (190°)15.0 mphMostly Cloudy
8:20 AM48.2 °F44.6 °F87 %29.74 in6.2 miSouth (190°)15.0 mphMostly Cloudy
8:50 AM48.2 °F44.6 °F87 %29.71 in6.2 miSSW (200°)15.0 mphMostly Cloudy
9:20 AM48.2 °F44.6 °F87 %29.68 in6.2 miSouth (190°)17.3 mph29.9 mphRainLight Rain
9:50 AM50.0 °F44.6 °F82 %29.65 in6.2 miSSW (200°)19.6 mph31.1 mphRainLight Rain
10:20 AM50.0 °F46.4 °F87 %29.62 in5.6 miSSW (200°)21.9 mph40.3 mphRainLight Rain
10:50 AM50.0 °F46.4 °F87 %29.59 in6.2 miSouth (190°)20.7 mph32.2 mphRainLight Rain
11:20 AM50.0 °F46.4 °F87 %29.56 in5.0 miSSW (200°)23.0 mph36.8 mphRainLight Rain
11:50 AM50.0 °F46.4 °F87 %29.53 in3.7 miSouth (190°)19.6 mphRainLight Rain
12:20 PM50.0 °F46.4 °F87 %29.50 in3.7 miSouth (190°)19.6 mph33.4 mphRainLight Rain
12:50 PM50.0 °F46.4 °F87 %29.44 in3.7 miSouth (190°)23.0 mph35.7 mphRainLight Rain
1:20 PM50.0 °F48.2 °F94 %29.42 in3.7 miSouth (190°)24.2 mph39.1 mphRainLight Rain
1:50 PM51.8 °F48.2 °F88 %29.39 in3.7 miSouth (190°)23.0 mph38.0 mphRainLight Rain
2:20 PM51.8 °F48.2 °F88 %29.36 in3.1 miSouth (190°)24.2 mph36.8 mphRainLight Rain
2:50 PM51.8 °F48.2 °F88 %29.33 in2.8 miSouth (190°)23.0 mph40.3 mphRainRain
3:20 PM51.8 °F48.2 °F88 %29.30 in2.5 miSSW (200°)23.0 mph41.4 mphRainRain
3:50 PM51.8 °F48.2 °F88 %29.27 in2.5 miSouth (190°)25.3 mph41.4 mphRainRain
4:20 PM51.8 °F48.2 °F88 %29.24 in2.8 miSSW (200°)26.5 mph44.9 mphRainRain
4:50 PM51.8 °F48.2 °F88 %29.21 in2.8 miSSW (200°)28.8 mph44.9 mphRainRain
5:20 PM51.8 °F48.2 °F88 %29.21 in3.1 miSSW (200°)23.0 mph39.1 mphRainRain
5:50 PM51.8 °F48.2 °F88 %29.21 in3.7 miSSW (200°)25.3 mph38.0 mphRainRain
6:20 PM51.8 °F50.0 °F94 %29.18 in2.2 miSSW (200°)27.6 mph41.4 mphRainRain
6:50 PM51.8 °F50.0 °F94 %29.18 in1.0 miSW (220°)24.2 mphRainHeavy Rain
7:20 PM51.8 °F50.0 °F94 %29.15 in3.1 miSW (220°)16.1 mph28.8 mphRainRain
7:50 PM51.8 °F50.0 °F94 %29.12 inSSW (200°)24.2 mph39.1 mphRainRain
8:20 PM51.8 °F50.0 °F94 %29.12 in1.9 miSSW (200°)26.5 mph43.7 mphRainHeavy Rain
8:50 PM51.8 °F50.0 °F94 %29.09 in3.1 miSSW (200°)23.0 mph41.4 mphRainRain
9:20 PM51.8 °F50.0 °F94 %29.06 in2.2 miSouth (190°)26.5 mph44.9 mphRainHeavy Rain
9:50 PM51.8 °F50.0 °F94 %29.03 in2.5 miSSW (200°)25.3 mph42.6 mphRainRain
10:20 PM51.8 °F50.0 °F94 %29.03 in2.5 miSSW (200°)26.5 mph44.9 mphRainRain
10:50 PM51.8 °F50.0 °F94 %29.00 in2.8 miSouth (190°)25.3 mph41.4 mphRainRain
11:20 PM51.8 °F50.0 °F94 %28.97 in2.5 miSouth (190°)28.8 mph48.3 mphRainRain
11:50 PM51.8 °F50.0 °F94 %28.94 in2.5 miSouth (190°)27.6 mph50.6 mphRainRain
Hourly data recorded from EGKK, located miles away from London, England







STORIES FROM OUR PARTNERS